Weather History for Crestview, FL

Change the Weather History Date:

Saturday, May 11, 2013

  Actual Average Record
Temperature  
Mean Temperature 66 °F -  
Max Temperature 73 °F - - ()
Min Temperature 59 °F - - ()
Cooling Degree Days 1    
Growing Degree Days 16 (Base 50)    
Moisture  
Dew Point 63 °F    
Average Humidity 94    
Maximum Humidity 100    
Minimum Humidity 70    
Precipitation  
Precipitation 0.14 in - - ()
Sea Level Pressure  
Sea Level Pressure 30.01 in    
Wind  
Wind Speed 3 mph (SSW)    
Max Wind Speed 8 mph    
Max Gust Speed -    
Visibility 6 miles    
Events Fog , Rain    
T = Trace of Precipitation, MM = Missing Value Source: NWS Daily Summary

Daily Weather History Graph

Daily Weather History Graph

Search for Another Location

Airport:

Trip Planner

Search our weather history database for the weather conditions in past years. The results will help you decide how hot, cold, wet, or windy it might be!

Date:

Astronomy

May. 11, 2013 Rise Set
Actual Time 5:53 AM CDT 7:31 PM CDT
Civil Twilight 5:27 AM CDT 7:57 PM CDT
Nautical Twilight 4:56 AM CDT 8:29 PM CDT
Astronomical Twilight 4:23 AM CDT 9:02 PM CDT
Moon 7:03 AM CDT (5/11) 9:08 PM CDT (5/11)
Length of Visible Light 14h 29m
Length of Day
13h 37m
Waxing Crescent, 3% of the Moon is Illuminated
May 11
Waxing Crescent
May 17
First Quarter
May 24
Full
May 31
Last Quarter
Jun 8
New

Hourly Weather History & Observations

Time (CDT) Temp. Dew Point Humidity Pressure Visibility Wind Dir Wind Speed Gust Speed Precip Events Conditions
12:58 AM 67.1 °F 64.4 °F 91% 30.04 in 10.0 mi NW 4.6 mph - N/A   Clear
1:58 AM 65.5 °F 64.2 °F 96% 30.03 in 10.0 mi WNW 2.3 mph - N/A   Clear
2:43 AM 62.6 °F 62.6 °F 100% 30.01 in 1.8 mi Calm Calm - N/A   Clear
2:48 AM 62.6 °F 62.6 °F 100% 30.01 in 1.2 mi Calm Calm - N/A   Clear
2:53 AM 62.6 °F 62.6 °F 100% 30.01 in 2.0 mi Calm Calm - N/A   Clear
2:58 AM 62.1 °F 61.9 °F 99% 30.01 in 5.0 mi Calm Calm - N/A   Clear
3:03 AM 60.8 °F 60.8 °F 100% 30.00 in 2.5 mi Calm Calm - N/A   Clear
3:08 AM 60.8 °F 60.8 °F 100% 30.00 in 1.5 mi Calm Calm - N/A   Clear
3:13 AM 60.8 °F 60.8 °F 100% 30.00 in 1.5 mi Calm Calm - N/A   Clear
3:18 AM 60.8 °F 60.8 °F 100% 30.00 in 2.5 mi Calm Calm - N/A   Clear
3:23 AM 60.8 °F 60.8 °F 100% 30.00 in 4.0 mi Calm Calm - N/A   Clear
3:28 AM 60.8 °F 60.8 °F 100% 30.00 in 1.8 mi South 1.2 mph - N/A   Clear
3:33 AM 60.8 °F 60.8 °F 100% 30.00 in 0.5 mi South 1.2 mph - N/A Fog Fog
3:38 AM 60.8 °F 60.8 °F 100% 30.00 in 0.2 mi South 1.2 mph - N/A Fog Fog
3:43 AM 60.8 °F 60.8 °F 100% 29.99 in 0.5 mi Calm Calm - N/A Fog Fog
3:48 AM 60.8 °F 60.8 °F 100% 30.00 in 1.0 mi SSE 1.2 mph - N/A   Clear
3:53 AM 60.8 °F 60.8 °F 100% 30.00 in 1.5 mi South 1.2 mph - N/A   Clear
3:58 AM 60.8 °F 60.8 °F 100% 30.00 in 0.5 mi South 2.3 mph - N/A Fog Fog
4:03 AM 60.8 °F 60.8 °F 100% 29.99 in 0.2 mi South 2.3 mph - N/A Fog Fog
4:08 AM 60.8 °F 60.8 °F 100% 29.99 in 0.5 mi South 2.3 mph - N/A Fog Fog
4:13 AM 60.8 °F 60.8 °F 100% 29.99 in 1.8 mi Calm Calm - N/A   Clear
4:18 AM 60.8 °F 60.8 °F 100% 29.99 in 0.8 mi South 2.3 mph - N/A   Clear
4:23 AM 60.8 °F 60.8 °F 100% 29.98 in 0.5 mi South 3.5 mph - N/A Fog Fog
4:38 AM 60.8 °F 60.8 °F 100% 29.99 in 1.2 mi South 3.5 mph - N/A   Clear
4:43 AM 60.8 °F 60.8 °F 100% 29.98 in 6.0 mi South 4.6 mph - N/A   Clear
4:58 AM 59.9 °F 59.7 °F 99% 29.99 in 7.0 mi South 4.6 mph - N/A   Clear
5:23 AM 60.8 °F 59.0 °F 94% 29.98 in 2.5 mi South 4.6 mph - N/A   Clear
5:28 AM 60.8 °F 59.0 °F 94% 29.98 in 2.0 mi South 4.6 mph - N/A   Clear
5:33 AM 60.8 °F 59.0 °F 94% 29.99 in 1.5 mi South 4.6 mph - N/A   Clear
5:43 AM 59.0 °F 59.0 °F 100% 29.99 in 2.5 mi SSE 4.6 mph - N/A   Clear
5:48 AM 60.8 °F 59.0 °F 94% 29.99 in 6.0 mi South 5.8 mph - N/A   Clear
5:53 AM 60.8 °F 60.8 °F 100% 29.99 in 1.2 mi South 4.6 mph - N/A   Clear
5:58 AM 60.8 °F 59.0 °F 94% 30.00 in 0.5 mi South 3.5 mph - N/A Fog Fog
6:08 AM 59.0 °F 59.0 °F 100% 29.99 in 1.5 mi South 4.6 mph - N/A   Clear
6:13 AM 59.0 °F 59.0 °F 100% 30.00 in 2.5 mi South 4.6 mph - N/A   Clear
6:18 AM 60.8 °F 59.0 °F 94% 30.00 in 2.0 mi South 3.5 mph - N/A   Clear
6:23 AM 60.8 °F 59.0 °F 94% 30.00 in 1.8 mi South 2.3 mph - N/A   Clear
6:33 AM 60.8 °F 60.8 °F 100% 30.00 in 1.2 mi South 2.3 mph - N/A   Clear
6:38 AM 60.8 °F 60.8 °F 100% 30.00 in 1.5 mi South 2.3 mph - N/A   Clear
6:43 AM 60.8 °F 60.8 °F 100% 30.00 in 5.0 mi South 2.3 mph - N/A   Clear
6:58 AM 62.6 °F 62.2 °F 99% 30.01 in 10.0 mi South 2.3 mph - N/A   Clear
7:58 AM 67.3 °F 66.9 °F 99% 30.03 in 10.0 mi South 8.1 mph - N/A   Partly Cloudy
8:58 AM 70.5 °F 65.5 °F 84% 30.05 in 10.0 mi SSW 8.1 mph - N/A   Clear
9:28 AM 71.6 °F 64.4 °F 78% 30.05 in 10.0 mi SW 5.8 mph - N/A Rain Light Rain
9:58 AM 69.3 °F 66.6 °F 91% 30.07 in 8.0 mi West 5.8 mph - 0.02 in Rain Light Rain
10:28 AM 68.0 °F 68.0 °F 100% 30.05 in 7.0 mi West 6.9 mph - N/A Rain Light Rain
10:33 AM 68.0 °F 68.0 °F 100% 30.05 in 6.0 mi West 8.1 mph - N/A Rain Light Rain
10:38 AM 68.0 °F 66.2 °F 94% 30.05 in 5.0 mi WSW 5.8 mph - N/A Rain Light Rain
10:53 AM 68.0 °F 66.2 °F 94% 30.04 in 8.0 mi SW 3.5 mph - N/A Rain Light Rain
10:58 AM 68.2 °F 66.4 °F 94% 30.05 in 9.0 mi SSW 4.6 mph - 0.10 in Rain Light Rain
11:44 AM 68.0 °F 66.2 °F 94% 30.03 in 10.0 mi South 8.1 mph - N/A   Clear
11:49 AM 69.8 °F 68.0 °F 94% 30.02 in 10.0 mi South 6.9 mph - N/A   Partly Cloudy
11:58 AM 69.1 °F 68.0 °F 96% 30.02 in 10.0 mi SSE 8.1 mph - 0.02 in   Scattered Clouds
12:58 PM 69.8 °F 68.0 °F 94% 30.05 in 10.0 mi NW 5.8 mph - N/A   Mostly Cloudy
1:03 PM 69.8 °F 68.0 °F 94% 30.04 in 10.0 mi WNW 4.6 mph - N/A   Mostly Cloudy
1:13 PM 69.8 °F 66.2 °F 88% 30.04 in 10.0 mi WNW 3.5 mph - N/A   Mostly Cloudy
1:23 PM 69.8 °F 66.2 °F 88% 30.03 in 10.0 mi Variable 3.5 mph - N/A   Mostly Cloudy
1:28 PM 69.8 °F 64.4 °F 83% 30.03 in 10.0 mi Calm Calm - N/A   Mostly Cloudy
1:58 PM 70.9 °F 64.8 °F 81% 30.04 in 10.0 mi SSE 3.5 mph - N/A   Mostly Cloudy
2:28 PM 71.6 °F 64.4 °F 78% 30.01 in 10.0 mi Variable 3.5 mph - N/A   Mostly Cloudy
2:58 PM 71.2 °F 64.9 °F 80% 30.01 in 10.0 mi West 2.3 mph - N/A   Overcast
3:58 PM 73.4 °F 63.1 °F 70% 29.99 in 10.0 mi SW 2.3 mph - N/A   Overcast
4:58 PM 73.2 °F 63.7 °F 72% 30.00 in 10.0 mi WSW 3.5 mph - N/A   Mostly Cloudy
5:18 PM 73.4 °F 64.4 °F 73% 29.98 in 10.0 mi SSW 4.6 mph - N/A   Mostly Cloudy
5:58 PM 72.3 °F 65.5 °F 79% 29.98 in 10.0 mi South 5.8 mph - N/A   Clear
6:58 PM 70.3 °F 66.0 °F 86% 29.99 in 10.0 mi South 8.1 mph - N/A   Partly Cloudy
7:58 PM 68.9 °F 66.2 °F 91% 30.00 in 10.0 mi South 6.9 mph - N/A   Clear
8:58 PM 68.7 °F 66.6 °F 93% 30.02 in 10.0 mi WSW 4.6 mph - N/A   Clear
9:58 PM 67.8 °F 66.7 °F 96% 30.02 in 10.0 mi West 2.3 mph - N/A   Clear
10:58 PM 66.7 °F 66.6 °F 99% 30.03 in 10.0 mi WSW 3.5 mph - N/A   Clear
11:58 PM 66.2 °F 65.8 °F 99% 30.02 in 10.0 mi West 3.5 mph - N/A   Clear